THY3NV LTFM-EDDF

Flight info

Callsign THY3NV
Flight time N/A
Altitude 40000
Route VADEN1D/35L VADEN N618 BAKLO DCT XANEX DCT UTEKA DCT BABIT DCT GOTAR DCT ABRUK DCT SIMBA DCT AKINI T161 DEBHI DEBHI1B
Aircraft A359/H-SDE2E3GHIJ3J4J5LM1ORWXY/LB1D1

Departure

Time N/A
Airport İstanbul Airport (LTFM)

Arrival

Time 2026-05-07 17:58
Airport Frankfurt Main Airport (EDDF)
Time Latitude Longitude Altitude Speed Heading
2026-05-07 17:03 46.79328 16.76494 40000 ft 490 kts 298°
2026-05-07 17:03 46.80990 16.72146 40000 ft 490 kts 298°
2026-05-07 17:03 46.84308 16.63445 40000 ft 491 kts 298°
2026-05-07 17:04 46.87620 16.54729 40000 ft 491 kts 298°
2026-05-07 17:04 46.90929 16.45996 40000 ft 491 kts 298°
2026-05-07 17:05 46.94227 16.37253 40000 ft 491 kts 298°
2026-05-07 17:05 46.97499 16.28551 40000 ft 491 kts 298°
2026-05-07 17:06 47.00774 16.19776 40000 ft 491 kts 297°
2026-05-07 17:06 47.03742 16.10754 40000 ft 491 kts 294°
2026-05-07 17:07 47.06576 16.01638 40000 ft 492 kts 294°
2026-05-07 17:07 47.09439 15.92524 40000 ft 492 kts 294°
2026-05-07 17:08 47.12332 15.83422 40000 ft 492 kts 295°
2026-05-07 17:08 47.15235 15.74318 40000 ft 492 kts 295°
2026-05-07 17:09 47.18131 15.65201 40000 ft 493 kts 294°
2026-05-07 17:09 47.21020 15.56068 40000 ft 493 kts 294°
2026-05-07 17:10 47.23904 15.46912 40000 ft 493 kts 294°
2026-05-07 17:10 47.26779 15.37750 40000 ft 493 kts 294°
2026-05-07 17:11 47.29648 15.28573 40000 ft 493 kts 294°
2026-05-07 17:11 47.32490 15.19442 40000 ft 494 kts 294°
2026-05-07 17:12 47.35349 15.10236 40000 ft 494 kts 294°
2026-05-07 17:12 47.38296 15.01075 39998 ft 494 kts 299°
2026-05-07 17:13 47.41899 14.92433 40000 ft 494 kts 302°
2026-05-07 17:13 47.45634 14.83910 39999 ft 495 kts 302°
2026-05-07 17:14 47.49397 14.75375 40000 ft 495 kts 302°
2026-05-07 17:14 47.53134 14.66842 40000 ft 495 kts 302°
2026-05-07 17:15 47.56865 14.58275 40000 ft 495 kts 302°
2026-05-07 17:15 47.60587 14.49688 40000 ft 495 kts 302°
2026-05-07 17:16 47.64304 14.41084 40000 ft 496 kts 302°
2026-05-07 17:16 47.68021 14.32464 40000 ft 496 kts 302°
2026-05-07 17:17 47.71727 14.23837 40000 ft 496 kts 302°
2026-05-07 17:17 47.75428 14.15195 40000 ft 496 kts 302°
2026-05-07 17:18 47.79130 14.06525 40000 ft 496 kts 302°
2026-05-07 17:18 47.82824 13.97851 40000 ft 496 kts 302°
2026-05-07 17:19 47.86511 13.89159 40001 ft 496 kts 302°
2026-05-07 17:19 47.90193 13.80455 40000 ft 497 kts 302°
2026-05-07 17:20 47.93871 13.71736 40000 ft 497 kts 301°
2026-05-07 17:20 47.97517 13.63053 40000 ft 497 kts 301°
2026-05-07 17:21 48.01181 13.54303 40000 ft 497 kts 301°
2026-05-07 17:21 48.04842 13.45541 40000 ft 497 kts 301°
2026-05-07 17:22 48.08497 13.36760 40000 ft 497 kts 301°
2026-05-07 17:22 48.12142 13.27972 40000 ft 497 kts 301°
2026-05-07 17:23 48.15784 13.19162 40000 ft 497 kts 301°
2026-05-07 17:23 48.19417 13.10345 40000 ft 498 kts 301°
2026-05-07 17:24 48.23175 13.01641 39998 ft 498 kts 308°
2026-05-07 17:24 48.27633 12.93693 40000 ft 498 kts 310°
2026-05-07 17:25 48.32225 12.85906 40000 ft 498 kts 311°
2026-05-07 17:25 48.36833 12.78132 40000 ft 498 kts 311°
2026-05-07 17:26 48.41426 12.70327 40000 ft 498 kts 311°
2026-05-07 17:26 48.46009 12.62496 40000 ft 498 kts 311°
2026-05-07 17:27 48.50588 12.54641 40000 ft 498 kts 311°
2026-05-07 17:27 48.55130 12.46828 40000 ft 499 kts 310°
2026-05-07 17:28 48.59696 12.38949 40000 ft 499 kts 310°
2026-05-07 17:28 48.64258 12.31054 40000 ft 499 kts 310°
2026-05-07 17:29 48.68819 12.23137 40000 ft 499 kts 310°
2026-05-07 17:29 48.73134 12.14937 39999 ft 498 kts 301°
2026-05-07 17:30 48.75700 12.05274 40004 ft 496 kts 282°
2026-05-07 17:30 48.76989 11.94999 40000 ft 496 kts 279°
2026-05-07 17:31 48.78042 11.84662 40000 ft 496 kts 278°
2026-05-07 17:31 48.79086 11.74315 40000 ft 497 kts 278°
2026-05-07 17:32 48.80153 11.63970 40000 ft 497 kts 278°
2026-05-07 17:32 48.81048 11.55366 40000 ft 497 kts 278°
2026-05-07 17:33 48.82291 11.43267 40000 ft 497 kts 278°
2026-05-07 17:33 48.83347 11.32918 39999 ft 497 kts 279°
2026-05-07 17:34 48.85419 11.23035 39999 ft 496 kts 297°
2026-05-07 17:34 48.87267 11.18615 40000 ft 496 kts 308°
2026-05-07 17:34 48.89586 11.14742 40003 ft 496 kts 314°
2026-05-07 17:35 48.94606 11.07528 40000 ft 497 kts 317°
2026-05-07 17:35 48.99739 11.00493 40001 ft 497 kts 317°
2026-05-07 17:36 49.04855 10.93415 40000 ft 497 kts 317°
2026-05-07 17:36 49.09942 10.86284 40000 ft 497 kts 316°
2026-05-07 17:37 49.12481 10.82701 39849 ft 499 kts 316°
2026-05-07 17:37 49.15039 10.79075 39605 ft 504 kts 316°
2026-05-07 17:37 49.17624 10.75403 39359 ft 510 kts 316°
2026-05-07 17:37 49.20231 10.71693 39114 ft 515 kts 316°
2026-05-07 17:38 49.22813 10.67859 38869 ft 520 kts 314°
2026-05-07 17:38 49.25353 10.63871 38622 ft 525 kts 313°
2026-05-07 17:38 49.27878 10.59807 38375 ft 530 kts 313°
2026-05-07 17:38 49.30409 10.55711 37886 ft 527 kts 313°
2026-05-07 17:39 49.32928 10.51646 37185 ft 524 kts 313°
2026-05-07 17:39 49.35406 10.47560 36447 ft 522 kts 309°
2026-05-07 17:39 49.37593 10.43124 35704 ft 520 kts 305°
2026-05-07 17:39 49.39690 10.38632 35089 ft 515 kts 305°
2026-05-07 17:40 49.41744 10.34172 34520 ft 509 kts 304°
2026-05-07 17:40 49.43768 10.29746 33947 ft 504 kts 304°
2026-05-07 17:40 49.45768 10.25359 33377 ft 498 kts 304°
2026-05-07 17:40 49.47743 10.21013 32811 ft 493 kts 304°
2026-05-07 17:41 49.49695 10.16711 32253 ft 488 kts 304°
2026-05-07 17:41 49.51622 10.12455 31703 ft 482 kts 304°
2026-05-07 17:41 49.53525 10.08243 31159 ft 477 kts 304°
2026-05-07 17:41 49.55407 10.04073 30621 ft 471 kts 304°
2026-05-07 17:42 49.57264 9.99949 30087 ft 466 kts 304°
2026-05-07 17:42 49.59097 9.95874 29560 ft 460 kts 304°
2026-05-07 17:42 49.60888 9.91888 29040 ft 455 kts 304°
2026-05-07 17:42 49.62700 9.87845 28512 ft 450 kts 304°
2026-05-07 17:43 49.64469 9.83894 27992 ft 445 kts 304°
2026-05-07 17:43 49.65629 9.81300 27651 ft 442 kts 304°
2026-05-07 17:43 49.67920 9.76169 26968 ft 435 kts 304°
2026-05-07 17:43 49.69625 9.72345 26459 ft 430 kts 304°
2026-05-07 17:44 49.71314 9.68550 25948 ft 426 kts 304°
2026-05-07 17:44 49.72981 9.64800 25441 ft 421 kts 304°
2026-05-07 17:44 49.74626 9.61094 24933 ft 416 kts 304°
2026-05-07 17:44 49.76256 9.57418 24409 ft 413 kts 304°
2026-05-07 17:45 49.77363 9.54917 23903 ft 422 kts 304°
2026-05-07 17:45 49.79025 9.51158 23031 ft 423 kts 304°
2026-05-07 17:45 49.80684 9.47403 22155 ft 421 kts 304°
2026-05-07 17:45 49.82326 9.43683 21281 ft 417 kts 304°
2026-05-07 17:46 49.83948 9.40003 20407 ft 410 kts 304°
2026-05-07 17:46 49.85521 9.36354 19530 ft 403 kts 301°
2026-05-07 17:46 49.86679 9.32446 18657 ft 396 kts 289°
2026-05-07 17:46 49.87503 9.28409 17783 ft 390 kts 286°
2026-05-07 17:47 49.88258 9.24407 16908 ft 384 kts 285°
2026-05-07 17:47 49.88998 9.20460 16037 ft 380 kts 285°
2026-05-07 17:47 49.89735 9.16544 15163 ft 376 kts 286°
2026-05-07 17:47 49.90456 9.12733 14300 ft 371 kts 286°
2026-05-07 17:48 49.91178 9.08918 13424 ft 366 kts 286°
2026-05-07 17:48 49.91890 9.05158 12549 ft 361 kts 286°
2026-05-07 17:48 49.92594 9.01456 11675 ft 356 kts 286°
2026-05-07 17:48 49.93411 8.97857 10796 ft 351 kts 295°
2026-05-07 17:49 49.94775 8.94766 9919 ft 346 kts 314°
2026-05-07 17:49 49.96699 8.92590 9045 ft 342 kts 333°
2026-05-07 17:49 49.98952 8.91551 8171 ft 337 kts 353°
2026-05-07 17:49 50.01260 8.91820 7292 ft 333 kts 17°
2026-05-07 17:50 50.03239 8.93580 6416 ft 328 kts 43°
2026-05-07 17:50 50.04491 8.96427 5592 ft 315 kts 66°
2026-05-07 17:50 50.05143 8.99541 5269 ft 289 kts 74°
2026-05-07 17:50 50.05693 9.02403 5111 ft 263 kts 71°
2026-05-07 17:51 50.06609 9.04711 4966 ft 247 kts 43°
2026-05-07 17:51 50.08090 9.05988 4843 ft 244 kts 13°
2026-05-07 17:51 50.09764 9.05955 4718 ft 242 kts 343°
2026-05-07 17:51 50.11260 9.04805 4598 ft 241 kts 326°
2026-05-07 17:52 50.12622 9.03300 4465 ft 240 kts 317°
2026-05-07 17:52 50.13429 9.01092 4338 ft 237 kts 279°
2026-05-07 17:52 50.13390 8.98548 4220 ft 236 kts 259°
2026-05-07 17:52 50.12937 8.96096 4096 ft 236 kts 250°
2026-05-07 17:53 50.12363 8.93708 3980 ft 235 kts 249°
2026-05-07 17:53 50.11789 8.91330 3941 ft 230 kts 249°
2026-05-07 17:53 50.11246 8.89075 3935 ft 216 kts 249°
2026-05-07 17:53 50.10725 8.86905 3942 ft 214 kts 249°
2026-05-07 17:54 50.10218 8.84776 3863 ft 206 kts 249°
2026-05-07 17:54 50.09730 8.82702 3624 ft 202 kts 249°
2026-05-07 17:54 50.09244 8.80651 3336 ft 202 kts 249°
2026-05-07 17:54 50.08755 8.78599 3045 ft 202 kts 249°
2026-05-07 17:55 50.08273 8.76573 2805 ft 197 kts 249°
2026-05-07 17:55 50.07809 8.74624 2514 ft 191 kts 249°
2026-05-07 17:55 50.07360 8.72735 2255 ft 177 kts 249°
2026-05-07 17:55 50.06954 8.71029 2037 ft 165 kts 249°
2026-05-07 17:56 50.06566 8.69402 1820 ft 155 kts 249°
2026-05-07 17:56 50.06203 8.67878 1612 ft 145 kts 248°
2026-05-07 17:56 50.05845 8.66464 1414 ft 136 kts 247°
2026-05-07 17:56 50.05523 8.65089 1253 ft 134 kts 249°
2026-05-07 17:57 50.05214 8.63714 1093 ft 135 kts 249°
2026-05-07 17:57 50.04998 8.62784 962 ft 135 kts 249°
2026-05-07 17:57 50.04561 8.60983 724 ft 134 kts 249°
2026-05-07 17:57 50.04239 8.59625 542 ft 134 kts 250°
2026-05-07 17:58 50.03915 8.58277 403 ft 132 kts 249°
2026-05-07 17:58 50.03603 8.56974 360 ft 122 kts 249°
2026-05-07 17:58 50.03353 8.55921 353 ft 72 kts 250°
2026-05-07 17:58 50.03244 8.55480 349 ft 36 kts 251°
2026-05-07 17:59 50.03180 8.55115 350 ft 34 kts 264°
2026-05-07 17:59 50.03193 8.54832 346 ft 21 kts 279°
2026-05-07 17:59 50.03208 8.54697 345 ft 9 kts 279°
2026-05-07 17:59 50.03213 8.54655 344 ft 10 kts 282°
2026-05-07 18:00 50.03219 8.54616 344 ft 11 kts 286°
2026-05-07 18:00 50.03265 8.54516 345 ft 12 kts 323°
2026-05-07 18:00 50.03343 8.54458 345 ft 13 kts 342°
2026-05-07 18:01 50.03429 8.54412 348 ft 13 kts 340°
2026-05-07 18:01 50.03518 8.54361 349 ft 15 kts 340°
2026-05-07 18:01 50.03612 8.54315 348 ft 6 kts
2026-05-07 18:01 50.03617 8.54319 348 ft 0 kts 18°
2026-05-07 18:02 50.03636 8.54328 348 ft 0 kts 18°
2026-05-07 18:03 50.03637 8.54329 348 ft 2 kts 18°
2026-05-07 18:03 50.03689 8.54419 349 ft 20 kts 62°
2026-05-07 18:03 50.03748 8.54676 352 ft 31 kts 75°
2026-05-07 18:03 50.03801 8.54914 354 ft 16 kts 69°
2026-05-07 18:04 50.03859 8.55157 355 ft 31 kts 70°
2026-05-07 18:04 50.03924 8.55433 356 ft 28 kts 69°
2026-05-07 18:04 50.03994 8.55724 355 ft 30 kts 70°
2026-05-07 18:04 50.04068 8.56031 357 ft 29 kts 69°
2026-05-07 18:05 50.04134 8.56310 359 ft 28 kts 70°
2026-05-07 18:05 50.04202 8.56594 362 ft 24 kts 70°
2026-05-07 18:05 50.04245 8.56767 365 ft 16 kts 60°
2026-05-07 18:05 50.04336 8.56824 366 ft 15 kts 12°
2026-05-07 18:06 50.04451 8.56856 366 ft 18 kts
2026-05-07 18:06 50.04585 8.56904 363 ft 22 kts 14°
2026-05-07 18:06 50.04714 8.56977 362 ft 21 kts 25°
2026-05-07 18:06 50.04809 8.57046 362 ft 11 kts 24°
2026-05-07 18:07 50.04836 8.57089 362 ft 3 kts 81°
2026-05-07 18:07 50.04830 8.57122 362 ft 4 kts 110°
2026-05-07 18:07 50.04819 8.57163 362 ft 2 kts 114°
2026-05-07 18:07 50.04816 8.57172 362 ft 0 kts 114°